• Join FlightAware (Why Join?)
  • Login
  • US Flag 
10:12PM EST


 

Airport Tracker/Info


-or-


 

Live Flight TrackerFlight Track Log ✈ SWA3497 ✈ 05-May-2013 ✈ KSDF - KBWI

Flight Track Log - Related Links

Times and Time Zones

All times are in EDT time to prevent confusion due to time zone crossing. See the SWA3497 flight status page for this flight to view local times or setup timezone preferences in your user account.

Time Position Orientation Groundspeed Altitude Reporting Facility
EDT Latitude Longitude Course Direction KTS MPH feet Rate Location/Type
02:13PM 38.1167 -85.7167 96° East 185 213 2,700  Level Louisville TRACON
02:14PM 38.1103 -85.6344 96° East 229 264 5,100 2,526 Climbing Indianapolis Center
02:15PM 38.1178 -85.5428 84° East 260 299 8,300 2,758 Climbing Indianapolis Center
02:16PM 38.1025 -85.4469 101° East 276 318 10,800 2,516 Climbing Indianapolis Center
02:17PM 38.0844 -85.3364 102° East 321 369 13,500 2,806 Climbing Indianapolis Center
02:18PM 38.0653 -85.2208 102° East 333 383 16,600 3,145 Climbing Indianapolis Center
02:19PM 38.0431 -85.0836 102° East 347 399 20,000 2,903 Climbing Indianapolis Center
02:20PM 38.0292 -84.9606 98° East 352 405 22,600 2,274 Climbing Indianapolis Center
02:21PM 38.0128 -84.8319 99° East 364 419 24,700 2,081 Climbing Indianapolis Center
02:22PM 37.9964 -84.6997 99° East 375 432 26,900 1,951 Climbing Indianapolis Center
02:23PM 37.9758 -84.5392 99° East 391 450 28,700 2,049 Climbing Indianapolis Center
02:24PM 37.9803 -84.3972 88° East 410 472 31,100 2,274 Climbing Indianapolis Center
02:25PM 38.0000 -84.2583 80° East 403 464 33,400 1,887 Climbing Indianapolis Center
02:26PM 38.0203 -84.1219 79° East 396 456 35,000 1,306 Climbing Indianapolis Center
02:27PM 38.0411 -83.9839 79° East 397 457 36,100 1,016 Climbing Indianapolis Center
02:29PM 38.0625 -83.8422 79° East 406 467 37,100 919 Climbing Indianapolis Center
02:30PM 38.0881 -83.6686 79° East 421 484 38,000 823 Climbing Indianapolis Center
02:31PM 38.1008 -83.5186 84° East 425 489 38,800 488 Climbing Indianapolis Center
02:32PM 38.1075 -83.3678 87° East 427 491 39,000 98 Climbing Indianapolis Center
02:33PM 38.1150 -83.2192 86° East 422 486 39,000  Level Indianapolis Center
02:34PM 38.1233 -83.0672 86° East 428 493 39,000  Level Indianapolis Center
02:35PM 38.1314 -82.9153 86° East 428 493 39,000  Level Indianapolis Center
02:36PM 38.1389 -82.7644 86° East 427 491 39,000  Level Indianapolis Center
02:37PM 38.1472 -82.5858 87° East 432 497 39,000  Level Indianapolis Center
02:38PM 38.1542 -82.4422 86° East 432 497 39,000  Level Indianapolis Center
02:39PM 38.1600 -82.2883 87° East 437 503 39,000  Level Indianapolis Center
02:40PM 38.1672 -82.1347 87° East 437 503 39,000  Level Indianapolis Center
02:41PM 38.1769 -81.9514 86° East 439 505 39,000  Level Indianapolis Center
02:42PM 38.1819 -81.7969 88° East 440 506 39,000  Level Indianapolis Center
02:43PM 38.1881 -81.6431 87° East 440 506 39,000  Level Indianapolis Center
02:44PM 38.1942 -81.4881 87° East 442 509 39,000  Level Indianapolis Center
02:45PM 38.2000 -81.3331 87° East 443 510 39,000  Level Indianapolis Center
02:46PM 38.2053 -81.1772 87° East 444 511 39,000  Level Indianapolis Center
02:47PM 38.2111 -80.9878 88° East 449 517 39,000  Level Indianapolis Center
02:48PM 38.2172 -80.8294 87° East 451 519 39,000  Level Indianapolis Center
02:49PM 38.2228 -80.6697 87° East 454 522 39,000 -290 Level Indianapolis Center
02:50PM 38.2281 -80.5128 88° East 449 517 38,400 -726 Descending Indianapolis Center
02:51PM 38.2294 -80.3539 89° East 449 517 37,500 -919 Descending Indianapolis Center
02:52PM 38.2367 -80.1942 87° East 451 519 36,500 -726 Descending Indianapolis Center
02:53PM 38.2406 -80.0119 88° East 447 514 36,000 -240 Descending Indianapolis Center
02:54PM 38.2453 -79.8642 88° East 440 506 36,000  Level Washington Center
02:55PM 38.2508 -79.7058 87° East 440 506 36,000 -353 Level Washington Center
02:56PM 38.2539 -79.5500 89° East 440 506 35,300 -807 Descending Washington Center
02:57PM 38.2611 -79.3917 87° East 440 506 34,400 -1,041 Descending Washington Center
02:58PM 38.3019 -79.2167 73° East 445 512 33,200 -1,587 Descending Washington Center
02:59PM 38.3397 -79.0675 72° East 445 512 31,200 -1,966 Descending Washington Center
03:00PM 38.3794 -78.9236 71° East 440 506 29,300 -1,714 Descending Washington Center
03:01PM 38.4100 -78.7978 73° East 435 501 27,800 -1,131 Descending Washington Center
03:02PM 38.4425 -78.6642 73° East 413 475 27,000 -403 Descending Washington Center
03:03PM 38.4753 -78.5275 73° East 398 458 27,000 -151 Level Washington Center
03:04PM 38.5097 -78.3936 72° East 398 458 26,700 -1,033 Descending Washington Center
03:05PM 38.5417 -78.2647 72° East 392 451 24,900 -1,884 Descending Washington Center
03:06PM 38.5739 -78.1358 72° East 385 443 22,900 -1,983 Descending Washington Center
03:07PM 38.6056 -78.0092 72° East 375 432 21,000 -1,866 Descending Washington Center
03:08PM 38.6350 -77.8906 72° East 361 415 19,200 -984 Descending Washington Center
03:09PM 38.6478 -77.7661 82° East 354 407 19,000 -101 Descending Washington Center
03:10PM 38.6539 -77.6467 86° East 349 402 19,000  Level Washington Center
03:11PM 38.6500 -77.6000 96° East 346 398 19,000 -1,184 Level Potomac TRACON
03:12PM 38.6667 -77.4667 81° East 336 387 17,500 -1,500 Descending Potomac TRACON
03:13PM 38.6667 -77.3500 90° East 332 382 16,000 -1,100 Descending Potomac TRACON
03:14PM 38.6833 -77.2500 78° East 314 361 15,300 -1,140 Descending Potomac TRACON
03:15PM 38.6833 -77.1333 90° East 305 351 13,700 -1,636 Descending Potomac TRACON
03:16PM 38.6833 -77.0333 90° East 301 346 12,000 -1,300 Descending Potomac TRACON
03:17PM 38.7000 -76.9333 78° East 292 336 11,100 -1,000 Descending Potomac TRACON
03:18PM 38.7000 -76.8333 90° East 282 325 10,000 -1,050 Descending Potomac TRACON
03:19PM 38.7167 -76.7333 78° East 271 312 9,000 -1,091 Descending Potomac TRACON
03:20PM 38.7500 -76.6500 63° Northeast 270 311 7,800 -1,323 Descending Potomac TRACON
03:21PM 38.8000 -76.5667 52° Northeast 269 310 6,200 -1,238 Descending Potomac TRACON
03:22PM 38.8667 -76.5833 349° North 287 330 5,200 -992 Descending Potomac TRACON
03:23PM 38.9167 -76.6333 322° Northwest 282 325 4,200 -567 Descending Potomac TRACON
03:24PM 38.9833 -76.7000 322° Northwest 277 319 4,000 -143 Descending Potomac TRACON
03:25PM 39.0500 -76.7667 322° Northwest 260 299 3,900 -571 Descending Potomac TRACON
03:26PM 39.1167 -76.8000 339° North 234 269 2,800 -905 Descending Potomac TRACON
03:27PM 39.1667 -76.7833 14° North 162 186 2,000 -900 Descending Potomac TRACON
03:28PM 39.1833 -76.7500 57° Northeast 136 157 1,000 -843 Descending Potomac TRACON
03:29PM 39.1833 -76.7000 90° East 131 151 300 -689 Descending Potomac TRACON
03:31PM 39.1667 -76.6667 123° Southeast  Level FlightAware Approximate
03:38PM 39.1754 -76.6683 123° Southeast  Level Estimated
03:39PM 39.1754 -76.6683 123° Southeast  Level Estimated